Regional Weather Roundup
Issued by NWS Nashville, TN

Home | Current Version | Previous Version | Text Only | Print | Product List | Glossary On
Versions: 1 2 3 4 5 6 7 8 9 10 11 12 13 14 15 16 17 18 19 20 21 22 23 24 25 26 27 28 29 30 31 32 33 34 35 36 37 38 39 40 41 42 43 44 45 46 47 48 49 50
000
ASUS44 KOHX 281310
RWROHX
MIDDLE TENNESSEE HOURLY WEATHER ROUNDUP
NATIONAL WEATHER SERVICE NASHVILLE TN
800 AM CDT TUE JUL 28 2015

NOTE: "FAIR" INDICATES FEW OR NO CLOUDS BELOW 12,000 FEET WITH
NO SIGNIFICANT WEATHER AND/OR OBSTRUCTIONS TO VISIBILITY.

* THESE REPORTS ARE NOT UNDER NWS QUALITY CONTROL AND MAY NOT
  REPORT WEATHER SUCH AS PRECIPITATION AND FOG.


TNZ005>011-023>034-057-059-062>066-078-080-281400
...NORTHERN MIDDLE TENNESSEE...

CITY           SKY/WX    TMP DP  RH WIND       PRES   REMARKS
CLARKSVILLE    MOSUNNY   80  75  84 CALM      29.99R
CROSSVILLE     MOSUNNY   79  72  79 W3        30.09R
GALLATIN         N/A     78  32  18 SE3       30.02R
DICKSON        MOSUNNY   81  75  83 CALM      30.01R
NASHVILLE      MOSUNNY   82  77  84 CALM      30.01R HX  90
PORTLAND       MOSUNNY  N/A N/A N/A CALM      30.00S
ROCKWOOD       MOSUNNY   77  73  87 CALM      30.08R
SMYRNA         MOSUNNY   81  80  96 CALM      30.02R HX  91
SPARTA         SUNNY     79  75  89 CALM      30.03S
$$
TNZ056-058-060-061-075>077-079-093>097-281400
...SOUTHERN MIDDLE TENNESSEE...

CITY           SKY/WX    TMP DP  RH WIND       PRES   REMARKS
COLUMBIA       SUNNY     81  81 100 S3        30.00S HX  91
LEWISBURG      MOSUNNY   79  74  84 CALM      30.02R
MCMINNVILLE    SUNNY     81  81 100 CALM      30.04R HX  91
SHELBYVILLE    SUNNY     82  77  83 CALM      30.04R HX  91
TULLAHOMA      SUNNY     81  73  78 CALM      30.05R
WINCHESTER     SUNNY     81  73  78 CALM      30.04R
$$


...KEY TO REMARKS...
VSB - VISIBILITY IN MILES
WCI - WIND CHILL INDEX
HX  - HEAT INDEX



USA.gov is the U.S. government's official web portal to all federal, state and local government web resources and services.